San Antonio, TX

10:39 AM CDT on May 22, 2017 (GMT -0500)
San Antonio International

Weather History for KSAT - April, 2014

Change the Weather History Date:

Sunday, April 27, 2014

  Actual Average Record
Temperature  
Mean Temperature 86 °F 72 °F  
Max Temperature 99 °F 83 °F 99 °F (2014)
Min Temperature 72 °F 61 °F 46 °F (1908)
Degree Days  
Heating Degree Days 0 0  
Month to date heating degree days 40 38  
Since 1 July heating degree days 1562 1493  
Cooling Degree Days 21 8  
Month to date cooling degree days 201 145  
Year to date cooling degree days 327 236  
Growing Degree Days 36 (Base 50)    
Moisture  
Dew Point 62 °F    
Average Humidity 51    
Maximum Humidity 87    
Minimum Humidity 14    
Precipitation  
Precipitation 0.00 in 0.08 in 2.10 in (1941)
Month to date precipitation 0.68 1.83  
Year to date precipitation 2.39 7.69  
Snow  
Snow 0.00 in - - ()
Month to date snowfall 0.0  
Since 1 July snowfall 0.4  
Snow Depth 0.00 in    
Sea Level Pressure  
Sea Level Pressure 29.53 in    
Wind  
Wind Speed 8 mph (South)    
Max Wind Speed 20 mph    
Max Gust Speed 24 mph    
Visibility 8 miles    
Events      
T = Trace of Precipitation, MM = Missing Value Source: NWS Daily Summary

Daily Weather History Graph

Daily Weather History Graph

Search for Another Location

Airport or City:

Trip Planner

Search our weather history database for the weather conditions in past years. The results will help you decide how hot, cold, wet, or windy it might be!

Date:

Astronomy

Apr. 27, 2014 Rise Set
Actual Time 6:55 AM CDT 8:08 PM CDT
Civil Twilight 6:30 AM CDT 8:33 PM CDT
Nautical Twilight 6:00 AM CDT 9:02 PM CDT
Astronomical Twilight 5:30 AM CDT 9:33 PM CDT
Moon 5:48 AM CDT (4/27) 6:49 PM CDT (4/27)
Length of Visible Light 14h 02m
Length of Day
13h 12m
Waning Crescent, 3% of the Moon is Illuminated
Apr 27
Waning Crescent
Apr 29
New
May 6
First Quarter
May 14
Full
May 21
Last Quarter

Hourly Weather History & Observations

Time (CDT) Temp. Heat Index Dew Point Humidity Pressure Visibility Wind Dir Wind Speed Gust Speed Precip Events Conditions
12:51 AM 75.9 °F - 70.0 °F 82% 29.63 in 7.0 mi SSE 11.5 mph - N/A   Overcast
1:51 AM 75.0 °F - 70.0 °F 84% 29.61 in 7.0 mi SE 10.4 mph - N/A   Overcast
2:51 AM 73.4 °F - 69.8 °F 88% 29.64 in 7.0 mi SE 10.4 mph - N/A   Overcast
3:51 AM 73.9 °F - 70.0 °F 87% 29.56 in 7.0 mi SE 10.4 mph - N/A   Overcast
4:51 AM 75.0 °F - 71.1 °F 87% 29.55 in 5.0 mi SE 11.5 mph - N/A   Overcast
5:51 AM 73.4 °F - 69.8 °F 88% 29.59 in 7.0 mi SE 10.4 mph - N/A   Overcast
6:51 AM 73.9 °F - 70.0 °F 87% 29.55 in 7.0 mi SSE 8.1 mph - N/A   Overcast
7:01 AM 73.9 °F - 70.0 °F 87% 29.61 in 6.0 mi SSE 9.2 mph - N/A   Overcast
7:51 AM 75.2 °F - 69.8 °F 83% 29.63 in 5.0 mi SSE 12.7 mph - N/A   Haze
8:51 AM 75.0 °F - 70.0 °F 84% 29.57 in 4.0 mi SSE 9.2 mph - N/A   Haze
9:51 AM 75.9 °F - 72.0 °F 87% 29.57 in 5.0 mi South 6.9 mph - N/A   Overcast
10:11 AM 78.1 °F - 70.0 °F 76% 29.63 in 5.0 mi SSE 8.1 mph - N/A   Haze
10:51 AM 80.1 °F 83.2 °F 70.0 °F 71% 29.58 in 5.0 mi South 9.2 mph - N/A   Haze
11:51 AM 84.9 °F 88.8 °F 69.1 °F 59% 29.57 in 8.0 mi SSW 9.2 mph - N/A   Mostly Cloudy
12:51 PM 87.1 °F 90.6 °F 68.0 °F 53% 29.54 in 8.0 mi SW 6.9 mph - N/A   Scattered Clouds
1:51 PM 91.0 °F 93.8 °F 66.0 °F 44% 29.50 in 10.0 mi South 5.8 mph - N/A   Partly Cloudy
2:13 PM 93.9 °F 96.1 °F 64.9 °F 38% 29.55 in 10.0 mi WSW 10.4 mph 18.4 mph N/A   Partly Cloudy
2:51 PM 95.0 °F 96.0 °F 63.0 °F 34% 29.48 in 10.0 mi WSW 6.9 mph - N/A   Scattered Clouds
3:51 PM 95.0 °F 94.8 °F 60.1 °F 31% 29.45 in 10.0 mi SSW 5.8 mph - N/A   Mostly Cloudy
4:51 PM 97.0 °F 94.6 °F 53.1 °F 23% 29.43 in 10.0 mi SW 8.1 mph 19.6 mph N/A   Mostly Cloudy
5:51 PM 98.1 °F - 43.0 °F 15% 29.43 in 10.0 mi SW 12.7 mph - N/A   Partly Cloudy
6:51 PM 96.1 °F - 39.0 °F 14% 29.43 in 10.0 mi WSW 9.2 mph - N/A   Partly Cloudy
7:51 PM 93.0 °F - 39.9 °F 16% 29.44 in 10.0 mi WSW 4.6 mph - N/A   Partly Cloudy
8:51 PM 88.0 °F - 43.0 °F 21% 29.44 in 10.0 mi South 6.9 mph - N/A   Partly Cloudy
9:51 PM 84.2 °F - 48.2 °F 29% 29.50 in 10.0 mi SSE 9.2 mph - N/A   Partly Cloudy
10:51 PM 82.4 °F 81.7 °F 55.4 °F 39% 29.54 in 10.0 mi SE 6.9 mph - N/A   Partly Cloudy
11:51 PM 79.0 °F - 64.0 °F 60% 29.51 in 10.0 mi SE 3.5 mph - N/A   Clear